FW6317 Weather Reports


time (UTC)temp
C
wind
direction
speed
KPH
gust
KPH
rain 1hr
cm
rain 24hr
cm
rain mn
cm
humidity
%
barometer
mb
20220524024523 21 0 0.0 0.0 0.00 0.00 0.00 92 1014.9
20220524023034 21 0 0.0 0.0 0.00 0.00 0.00 92 1015.1
20220524021526 20 0 0.0 0.0 0.00 0.00 0.00 92 1014.7
20220524020031 21 0 0.0 0.0 0.00 0.00 0.00 92 1014.4
20220524014525 21 0 0.0 0.0 0.00 0.00 0.00 92 1014.4
20220524013023 21 0 0.0 0.0 0.00 0.00 0.00 91 1014.2
20220524011531 21 0 0.0 0.0 0.00 0.00 0.00 91 1014.0
20220524010022 22 0 0.0 0.0 0.00 0.00 0.00 91 1014.0
20220524004533 22 0 0.0 0.0 0.00 0.00 0.00 90 1013.8
20220524003035 22 0 0.0 0.0 0.00 0.00 0.00 88 1013.5
20220524001532 23 0 0.0 3.2 0.00 0.00 0.00 87 1013.7
20220524000047 23 0 0.0 4.8 0.00 0.00 0.00 85 1013.8
20220523234523 24 0 0.0 4.8 0.00 0.00 0.00 83 1013.7
20220523233028 23 0 1.6 9.7 0.00 0.00 0.00 83 1013.8
20220523231525 23 97 1.6 6.4 0.00 0.00 0.00 82 1014.0
20220523230023 24 28 0.0 6.4 0.00 0.00 0.00 83 1014.1
20220523224531 23 360 0.0 3.2 0.00 0.00 0.00 83 1014.1
20220523223033 23 0 0.0 4.8 0.00 0.00 0.00 85 1014.3
20220523221526 23 360 1.6 9.7 0.00 0.00 0.00 85 1014.2
20220523220038 22 0 0.0 6.4 0.00 0.00 0.00 86 1014.2
20220523214534 22 360 0.0 4.8 0.00 0.00 0.00 86 1014.4
20220523213031 22 360 1.6 6.4 0.00 0.00 0.00 86 1014.5
20220523211524 22 0 0.0 3.2 0.00 0.00 0.00 87 1014.7
20220523210025 22 360 1.6 4.8 0.00 0.00 0.00 86 1015.0
20220523204524 22 0 0.0 3.2 0.00 0.00 0.00 88 1015.3
20220523203039 22 360 0.0 4.8 0.00 0.00 0.00 86 1015.7
20220523201529 22 360 0.0 6.4 0.00 0.00 0.00 86 1016.0
20220523200025 22 0 1.6 6.4 0.00 0.00 0.00 87 1016.2
20220523194535 22 360 0.0 3.2 0.00 0.00 0.00 86 1016.4
20220523193028 22 0 0.0 4.8 0.00 0.00 0.00 88 1016.7
20220523191529 22 360 0.0 3.2 0.00 0.00 0.00 87 1016.8
20220523190028 22 0 0.0 4.8 0.00 0.00 0.00 87 1017.3
20220523184528 21 360 0.0 3.2 0.00 0.00 0.00 87 1017.4
20220523183025 21 360 0.0 4.8 0.00 0.00 0.00 88 1017.6
20220523181540 21 0 0.0 4.8 0.00 0.00 0.00 88 1017.8
20220523180027 21 0 0.0 4.8 0.00 0.00 0.00 88 1018.0
20220523174535 21 0 0.0 4.8 0.00 0.00 0.00 88 1018.2
20220523173024 21 0 0.0 6.4 0.00 0.00 0.00 88 1018.3
20220523171538 21 360 0.0 6.4 0.00 0.00 0.00 88 1018.3
20220523170030 21 0 0.0 1.6 0.00 0.00 0.00 87 1018.3
20220523164524 21 0 0.0 1.6 0.00 0.00 0.00 88 1018.5
20220523163029 21 360 0.0 3.2 0.00 0.00 0.00 87 1018.7
20220523161538 21 360 0.0 3.2 0.00 0.00 0.00 88 1018.9
20220523160047 21 0 0.0 3.2 0.00 0.00 0.00 88 1018.9
20220523154525 20 360 0.0 4.8 0.00 0.00 0.00 88 1019.1
20220523153042 20 360 0.0 3.2 0.00 0.00 0.00 88 1019.2
20220523151530 20 360 0.0 4.8 0.00 0.00 0.00 89 1019.3
20220523150035 20 360 0.0 6.4 0.00 0.00 0.00 89 1019.2
20220523144532 20 0 0.0 4.8 0.00 0.00 0.00 89 1019.2
20220523143034 20 0 0.0 6.4 0.00 0.00 0.00 89 1019.2
20220523141538 20 24 1.6 8.0 0.00 0.00 0.00 89 1019.3
20220523140032 20 0 0.0 0.0 0.00 0.00 0.00 90 1019.3
20220523134525 20 0 0.0 3.2 0.00 0.18 0.00 90 1019.2
20220523133023 19 360 0.0 6.4 0.00 0.18 0.00 90 1019.4
20220523131528 19 0 0.0 8.0 0.00 0.18 0.00 90 1019.2
20220523130031 19 342 0.0 6.4 0.00 0.18 0.00 90 1018.9
20220523124533 19 336 0.0 9.7 0.00 0.56 0.00 90 1018.6
20220523123026 19 115 0.0 8.0 0.00 0.56 0.00 90 1018.4
20220523121523 19 360 1.6 16.1 0.00 0.56 0.00 89 1018.1
20220523120024 20 0 1.6 9.7 0.00 0.56 0.00 90 1017.6
20220523114525 20 24 1.6 6.4 0.00 0.76 0.00 90 1017.6
20220523113024 20 28 1.6 6.4 0.00 0.76 0.00 89 1017.6
20220523111521 20 36 1.6 8.0 0.00 0.76 0.00 89 1017.2
20220523110028 20 0 0.0 6.4 0.00 0.76 0.00 89 1017.1
20220523104525 20 0 0.0 4.8 0.00 1.37 0.00 89 1017.0
20220523103024 20 0 0.0 6.4 0.00 1.37 0.00 89 1016.9
20220523101535 20 286 1.6 6.4 0.00 1.37 0.00 89 1016.9
20220523100025 20 0 0.0 4.8 0.00 1.37 0.00 89 1016.6
20220523094525 20 301 1.6 6.4 0.00 4.39 0.00 89 1016.8
20220523093026 20 0 0.0 4.8 0.00 4.39 0.00 89 1016.8
20220523091525 20 0 0.0 6.4 0.00 4.39 0.00 89 1017.0
20220523090023 20 360 0.0 8.0 0.00 4.39 0.00 90 1017.1
20220523084525 20 17 0.0 6.4 0.00 4.72 0.00 90 1017.3
20220523083024 20 352 0.0 4.8 0.00 4.72 0.00 90 1017.4
20220523081531 20 0 0.0 4.8 0.00 4.72 0.00 90 1017.5
20220523080027 20 0 0.0 4.8 0.00 4.72 0.00 90 1017.6
20220523074527 20 0 1.6 6.4 0.00 4.80 0.00 90 1017.7
20220523073041 20 0 0.0 9.7 0.00 4.80 0.00 90 1018.0
20220523071526 20 111 0.0 4.8 0.00 4.80 0.00 90 1018.1
20220523070024 20 11 0.0 6.4 0.00 4.80 0.00 91 1018.5
20220523064524 20 0 0.0 8.0 0.00 4.80 0.00 91 1018.8
20220523063028 20 360 0.0 4.8 0.00 4.80 0.00 92 1018.9
20220523061535 20 360 0.0 8.0 0.00 4.80 0.00 92 1018.9
20220523060024 20 0 0.0 0.0 0.00 4.80 0.00 92 1019.0
20220523054530 20 0 0.0 0.0 0.00 4.80 0.00 92 1019.1
20220523053024 20 0 0.0 4.8 0.00 4.80 0.00 91 1018.8
20220523051531 20 0 0.0 0.0 0.00 4.80 0.00 91 1018.9
20220523050033 20 0 0.0 0.0 0.00 4.80 0.00 91 1019.0
20220523044529 21 0 0.0 0.0 0.00 4.80 4.80 91 1019.2
20220523043045 21 0 0.0 0.0 0.00 4.80 4.80 91 1019.4
20220523041527 21 0 0.0 1.6 0.00 4.80 4.80 90 1019.3
20220523040031 21 0 0.0 4.8 0.00 4.80 4.80 90 1019.2
20220523034526 21 360 0.0 8.0 0.00 4.80 4.80 90 1019.0
20220523033024 21 360 0.0 3.2 0.00 4.80 4.80 90 1018.8
20220523031536 22 0 0.0 6.4 0.00 4.80 4.80 89 1018.6
20220523030031 22 360 0.0 3.2 0.00 4.80 4.80 90 1018.5